Starlink 5024

operational
NORAD ID: 53901 Int'l Des: 2022-119 Owner: SPXS Country: US Constellation: starlink
LEOCIRCULAR

关于 Starlink 5024

正在加载描述...

实时位置

正在加载3D地球...

即将过境

高度历史

Altitude vs Time

uPlot chart will show altitude changes over time

两行轨道根数

1 53901U 22119R 25352.33335648 .00174283 00000-0 10787-2 0 9995
2 53901 53.2147 290.2001 0010288 79.2354 8.1727 15.75990425 5787
Epoch: Dec 18, 2025 • Age: 5 hours

当前状态

高度 362.8 km
速度 7.69 km/s
星下点 -43.82°S, 130.89°W
发射日期 Sep 24, 2022
运行时间 3.2 years
类型 internet

技术详情

分类 Payload
质量 305.00 kg
干质量 290.00 kg
总质量 305.00 kg
长度 0.20 m
直径 2.80 m
跨度 9.00 m
形状 Box + pan
制造商 SPXS
平台类型 Starlink
阶段状态 In Orbit
所有者/国家 SPXS/US

大型星座

Loading constellations...